Wind_Speed
25 26 27 28 28 27 27 26 27 27 26 24 23 22 22 22 22 21 21 20 20 19 18 18 17 17 17 17 18 17 17 17 17 18 18 19 18 19 19 18 18 19 19 20
25 26 28 28 27 27 26 27 27 27 27 26 24 23 23 23 22 22 21 21 20 20 20 19 19 18 18 18 19 19 19 20 20 20 20 21 20 20 21 20 20 21 21 22
26 27 29 29 28 28 27 26 27 27 27 26 26 24 24 24 24 23 23 22 21 21 21 20 20 20 20 21 21 21 21 21 22 22 22 22 22 22 23 23 23 23 23 24
28 28 29 28 27 27 27 26 27 26 26 25 25 26 26 26 25 24 23 23 23 22 22 21 21 22 22 23 23 24 24 24 24 24 24 25 26 25 25 26 25 25 25 26
28 29 29 28 26 26 26 26 26 26 26 25 25 26 27 26 25 25 24 23 23 23 23 23 22 23 23 24 24 25 25 26 26 27 27 27 28 28 27 26 26 25 26 26
28 29 29 27 26 26 26 26 26 26 26 25 25 26 25 25 25 25 25 24 24 24 24 24 24 23 24 25 25 26 26 27 28 28 28 29 29 29 28 28 28 27 27 28
28 28 28 27 26 26 26 25 26 26 26 24 25 25 25 25 26 26 26 26 26 25 25 24 24 24 24 24 25 26 27 28 28 29 29 30 30 29 29 29 30 29 30 31
28 28 27 26 26 26 25 25 26 26 25 26 25 26 26 25 25 26 26 26 26 26 26 26 25 25 25 25 25 26 26 27 27 27 28 29 29 29 29 30 30 30 31 31
27 27 25 24 25 26 25 24 25 26 26 26 26 26 26 26 26 26 27 26 26 27 26 26 26 26 26 26 26 27 27 28 28 28 28 28 28 28 28 30 31 32 32 32
27 27 26 25 25 25 24 25 26 26 27 26 26 26 27 27 28 28 27 26 26 26 27 26 26 26 26 27 27 28 28 29 29 29 29 28 28 29 30 31 32 32 33 33
27 26 25 24 24 24 23 24 25 25 26 26 26 26 26 27 27 27 26 25 26 26 26 26 26 26 27 28 29 29 30 30 30 30 30 29 29 30 31 31 32 33 34 33
25 24 23 22 23 23 23 23 23 23 24 24 24 25 25 25 25 25 25 25 25 25 25 26 27 27 28 29 30 31 31 31 30 30 30 31 31 31 31 31 32 33 33 33
23 22 22 22 23 23 22 21 22 21 22 22 23 24 24 25 25 25 26 26 26 25 26 26 27 28 29 30 31 32 32 32 31 30 31 31 31 30 31 31 32 32 33 34
22 21 21 22 22 23 23 22 21 21 21 22 22 22 24 24 25 25 26 26 26 26 27 27 28 28 29 30 31 32 31 31 30 30 30 30 30 30 30 31 32 32 33 33
21 22 22 22 22 23 23 22 21 21 21 21 22 22 23 24 24 25 25 25 26 26 27 27 28 28 28 29 29 29 30 30 30 29 29 29 30 30 31 31 32 32 32 33
23 23 23 22 21 22 22 22 22 22 22 22 23 23 23 24 24 25 25 25 25 25 25 26 26 26 27 27 28 28 28 28 27 27 27 28 29 29 30 31 31 32 32 33
24 24 23 23 23 23 22 22 22 22 22 22 22 23 24 24 24 24 24 24 24 24 24 24 25 25 25 25 26 26 26 27 26 26 26 27 27 28 29 29 30 31 32 32
25 23 22 22 23 23 22 22 23 23 22 22 23 24 24 24 24 23 23 23 23 23 23 23 24 24 24 24 25 25 26 26 26 26 26 26 27 27 27 28 29 30 31 31
23 24 23 23 23 24 23 23 23 23 23 23 24 24 23 22 22 23 22 22 21 21 21 21 22 23 23 24 25 25 25 25 25 25 25 26 27 27 27 28 28 29 29 30
21 22 23 24 24 23 23 23 23 23 23 23 23 23 22 21 21 21 20 20 20 20 20 22 22 22 22 23 23 23 23 23 23 24 25 26 26 27 27 27 28 28 29 30
20 21 21 21 22 22 22 22 23 23 23 22 22 22 21 20 19 18 19 20 20 19 20 21 21 21 21 21 21 22 22 22 22 23 23 24 25 26 27 28 28 29 30 30
18 18 18 19 20 20 21 21 21 21 21 20 20 19 19 18 17 17 18 19 18 18 18 18 19 19 20 20 21 21 21 21 22 22 22 23 25 26 28 28 29 29 30 30
18 18 18 18 18 18 18 18 19 18 18 18 18 17 17 16 16 16 17 17 17 16 16 17 18 18 19 20 20 19 20 21 21 22 23 24 26 26 27 28 29 30 30 30
17 17 17 16 16 16 16 15 15 15 16 16 16 15 14 14 15 15 16 16 15 15 16 17 17 18 19 19 19 19 21 21 22 23 24 25 26 27 28 28 29 30 30 31
14 14 14 14 14 14 14 13 14 14 14 14 14 14 13 13 14 13 14 14 14 14 14 15 16 17 17 18 20 21 22 23 23 24 25 25 26 27 28 29 29 30 30 31
12 12 12 12 11 11 12 12 13 13 14 14 14 13 13 13 13 13 13 13 13 13 15 16 17 17 18 19 20 21 22 23 24 25 26 27 27 28 29 29 30 30 31 31
11 10 9 9 9 9 10 11 13 13 14 13 12 12 12 13 14 14 14 14 15 15 16 17 18 19 20 21 21 22 23 24 25 25 26 27 28 28 29 29 30 30 30 31
Wind_Direction
244 244 245 246 246 248 251 257 260 263 267 270 272 274 273 272 272 273 276 279 279 278 277 280 280 276 273 271 270 269 270 272 272 273 271 275 276 277 277 272 271 273 274 273
244 245 247 248 248 250 254 258 261 263 266 270 272 274 273 272 273 273 274 274 273 275 273 272 272 272 272 272 270 271 274 276 274 275 275 274 275 276 277 273 272 273 273 273
247 247 249 251 250 251 254 257 261 263 266 269 268 269 271 271 271 272 272 270 269 271 271 268 268 271 273 272 273 275 277 278 277 276 275 275 275 277 278 275 272 274 274 274
251 250 252 254 254 255 256 255 258 262 264 268 265 264 267 268 268 270 272 272 272 273 272 269 270 271 271 272 273 275 277 279 279 277 276 277 278 279 278 276 273 275 275 274
251 252 255 255 256 257 257 256 257 259 262 263 264 263 264 266 266 268 269 270 271 273 275 272 271 269 270 273 275 276 276 278 278 277 276 277 279 279 278 275 275 277 276 275
252 253 255 256 256 259 260 258 258 260 262 262 261 263 264 265 265 264 266 268 271 274 274 274 270 271 272 275 277 278 279 280 278 277 277 277 278 278 278 277 276 276 276 276
253 255 257 258 259 261 261 261 262 263 263 262 260 263 265 262 264 265 265 265 269 273 274 276 276 274 274 275 277 278 280 280 281 280 280 279 279 278 278 277 277 276 276 277
253 256 258 257 258 259 261 262 263 263 264 266 265 264 264 266 267 271 271 268 268 271 273 274 275 274 275 275 276 278 280 281 281 283 283 280 279 279 278 278 280 278 277 277
253 255 255 255 257 260 262 264 266 265 266 266 266 267 268 269 269 273 272 270 270 272 273 274 274 275 274 274 276 278 281 282 283 284 282 281 281 280 281 282 282 279 279 278
251 252 253 256 258 261 264 266 267 267 266 267 268 268 269 270 270 271 271 270 271 273 274 274 274 274 273 273 275 278 281 283 284 283 282 281 282 283 284 285 285 284 282 282
251 252 254 257 259 260 262 263 264 266 268 268 268 269 269 270 269 268 268 269 270 272 273 272 273 274 275 275 277 279 281 282 283 282 282 282 284 284 284 284 286 286 286 283
252 253 255 256 258 260 262 263 262 265 266 267 266 267 268 268 267 267 268 268 268 271 272 274 275 276 277 277 279 280 280 280 281 282 282 282 284 285 284 284 286 286 287 286
252 253 255 256 259 261 261 263 263 265 265 264 265 266 266 265 264 266 267 269 270 271 273 274 275 276 278 280 281 281 280 279 280 282 283 283 283 284 285 285 286 286 287 288
251 253 254 257 261 262 262 263 263 264 265 265 265 267 267 265 264 265 267 269 269 270 272 274 277 278 279 282 283 283 281 280 280 282 283 283 284 286 286 285 285 286 288 289
253 256 258 259 261 262 262 264 264 266 268 269 269 270 270 270 268 267 268 269 270 272 273 275 277 280 282 282 285 284 281 281 282 283 284 284 284 286 287 286 286 287 289 291
256 258 259 261 262 263 264 265 265 267 269 271 271 270 270 271 270 269 270 272 272 273 274 276 278 280 280 282 284 285 283 281 282 283 284 285 286 287 287 287 288 289 290 291
256 257 259 260 261 263 264 265 266 268 269 272 273 272 271 271 270 272 272 271 272 274 277 279 279 279 280 282 284 284 283 282 282 284 285 288 290 290 290 292 293 293 293 293
254 253 254 256 258 260 262 264 266 268 270 272 274 274 273 272 270 270 271 272 273 275 276 277 277 278 281 282 283 284 284 283 284 286 287 289 292 293 294 295 296 296 297 297
254 253 254 256 258 258 260 263 266 269 270 272 276 279 278 274 272 270 270 271 272 274 275 278 280 281 282 284 286 287 286 287 287 288 289 292 293 295 296 296 297 297 299 301
256 256 257 258 258 258 259 263 266 269 271 273 275 278 280 276 273 271 270 269 270 274 278 280 282 283 285 287 289 291 291 290 290 291 292 293 296 297 297 297 297 299 300 302
258 260 262 263 262 261 262 264 265 268 271 272 275 277 279 278 274 272 272 271 270 273 278 280 281 283 286 287 289 290 290 290 292 293 295 296 297 297 298 300 300 301 301 301
259 262 265 267 266 265 264 263 265 266 267 269 273 276 278 277 274 273 273 273 274 276 277 279 282 285 286 288 289 291 295 294 294 296 298 299 301 302 302 303 303 302 302 302
259 261 264 266 265 263 264 266 266 265 265 268 272 275 276 274 272 271 274 274 277 280 283 286 286 287 290 290 292 295 298 300 301 302 303 303 304 304 305 305 305 304 304 305
257 260 262 262 263 264 265 266 264 263 263 265 270 274 273 273 274 275 275 276 280 283 285 288 289 290 292 294 299 302 303 305 304 304 305 305 305 306 307 307 307 307 307 307
257 259 260 259 262 263 260 257 260 261 262 266 270 272 273 275 277 277 277 279 282 283 286 289 290 292 295 299 301 302 303 304 305 307 308 308 308 308 309 309 310 310 309 309
254 256 257 258 259 259 257 258 262 262 263 265 270 272 274 275 276 278 278 278 283 287 290 292 294 298 302 305 305 304 304 304 306 307 308 308 308 308 309 310 310 310 310 311
250 250 251 253 254 256 259 262 264 264 264 265 267 271 274 276 277 276 279 282 284 287 289 291 294 298 301 304 304 305 305 306 307 308 308 308 309 310 311 311 311 312 312 313
Height
5843 5846 5847 5849 5851 5853 5855 5856 5858 5859 5860 5862 5863 5864 5864 5864 5864 5864 5864 5864 5863 5863 5863 5863 5863 5863 5863 5863 5864 5863 5864 5864 5863 5863 5863 5862 5861 5860 5860 5859 5858 5858 5858 5857
5837 5840 5841 5843 5846 5847 5849 5850 5852 5853 5855 5856 5857 5858 5858 5858 5858 5858 5858 5858 5858 5858 5858 5858 5858 5859 5859 5859 5859 5858 5858 5858 5858 5858 5857 5856 5855 5855 5854 5853 5853 5852 5852 5851
5831 5833 5834 5837 5840 5841 5842 5844 5846 5847 5849 5849 5850 5851 5852 5852 5852 5852 5852 5852 5853 5853 5853 5853 5853 5853 5853 5854 5853 5853 5853 5852 5852 5851 5851 5850 5849 5848 5848 5847 5846 5846 5845 5844
5825 5827 5828 5833 5833 5834 5836 5837 5839 5840 5842 5843 5843 5844 5844 5845 5845 5845 5846 5846 5846 5846 5846 5846 5846 5846 5846 5847 5847 5847 5847 5846 5845 5844 5844 5843 5842 5841 5840 5840 5839 5838 5838 5837
5818 5819 5821 5825 5827 5827 5829 5831 5833 5834 5835 5836 5837 5837 5838 5838 5838 5839 5839 5839 5839 5839 5839 5839 5839 5839 5840 5840 5840 5839 5839 5838 5838 5837 5837 5836 5835 5834 5833 5832 5831 5830 5830 5829
5812 5813 5815 5820 5821 5821 5823 5824 5827 5827 5828 5829 5830 5830 5832 5832 5832 5832 5832 5832 5832 5832 5832 5832 5832 5832 5833 5833 5833 5832 5831 5831 5830 5829 5829 5828 5827 5826 5825 5824 5823 5822 5821 5820
5806 5807 5809 5812 5814 5815 5817 5819 5820 5820 5821 5822 5822 5824 5824 5824 5824 5824 5825 5825 5825 5825 5825 5825 5825 5826 5826 5826 5825 5825 5824 5823 5822 5821 5820 5820 5819 5817 5816 5815 5814 5813 5812 5811
5799 5801 5805 5806 5806 5808 5809 5811 5811 5812 5813 5814 5815 5815 5815 5816 5816 5817 5817 5818 5818 5818 5818 5818 5818 5818 5818 5818 5818 5817 5816 5815 5814 5813 5812 5810 5809 5808 5807 5806 5805 5803 5802 5801
5794 5797 5798 5798 5799 5800 5802 5803 5804 5805 5806 5807 5807 5808 5808 5809 5809 5810 5810 5810 5811 5811 5811 5811 5810 5810 5810 5810 5810 5809 5808 5807 5806 5804 5803 5802 5800 5799 5798 5796 5796 5794 5792 5791
5786 5788 5790 5791 5792 5793 5795 5796 5797 5798 5799 5800 5800 5801 5801 5802 5802 5802 5802 5803 5803 5803 5803 5803 5802 5802 5802 5802 5802 5801 5800 5798 5797 5796 5794 5793 5792 5790 5789 5787 5786 5785 5783 5781
5779 5781 5782 5785 5786 5787 5788 5789 5790 5791 5791 5792 5793 5793 5793 5794 5794 5794 5795 5795 5795 5795 5795 5795 5794 5794 5794 5794 5793 5792 5791 5790 5788 5787 5786 5785 5783 5782 5780 5778 5776 5775 5773 5772
5772 5774 5776 5778 5780 5781 5782 5783 5783 5784 5784 5784 5785 5786 5786 5786 5786 5787 5787 5787 5787 5787 5787 5787 5787 5786 5786 5785 5784 5784 5782 5781 5780 5778 5777 5776 5775 5773 5771 5770 5768 5765 5764 5762
5767 5769 5770 5772 5773 5774 5775 5776 5777 5777 5777 5778 5778 5779 5779 5779 5780 5780 5780 5780 5780 5780 5780 5780 5779 5779 5778 5777 5775 5774 5773 5772 5771 5769 5768 5767 5766 5764 5763 5761 5759 5756 5754 5752
5761 5763 5764 5766 5767 5768 5769 5770 5770 5771 5771 5771 5772 5772 5772 5772 5772 5773 5773 5773 5773 5773 5773 5772 5771 5771 5770 5768 5767 5765 5764 5763 5762 5761 5759 5758 5756 5755 5753 5751 5750 5747 5746 5743
5755 5757 5759 5760 5761 5762 5763 5763 5764 5764 5765 5765 5765 5765 5765 5765 5765 5765 5765 5765 5766 5766 5765 5765 5764 5763 5762 5760 5759 5757 5756 5755 5753 5752 5750 5749 5747 5746 5744 5742 5740 5738 5736 5734
5750 5751 5752 5754 5755 5756 5757 5757 5758 5758 5758 5759 5758 5758 5758 5758 5758 5758 5758 5758 5758 5758 5758 5757 5756 5755 5754 5752 5751 5749 5748 5746 5745 5743 5742 5740 5738 5737 5735 5733 5731 5729 5726 5724
5744 5745 5746 5747 5749 5750 5750 5751 5752 5752 5752 5752 5752 5751 5751 5750 5750 5750 5750 5751 5751 5751 5750 5749 5748 5748 5747 5745 5744 5742 5740 5739 5737 5735 5734 5732 5729 5728 5726 5724 5722 5719 5717 5715
5737 5738 5740 5741 5742 5743 5744 5745 5745 5745 5746 5746 5745 5744 5744 5743 5743 5743 5743 5744 5744 5744 5743 5742 5741 5740 5739 5738 5736 5735 5733 5731 5729 5728 5726 5724 5722 5720 5718 5715 5713 5711 5708 5705
5730 5732 5733 5734 5735 5736 5737 5738 5739 5739 5739 5739 5739 5738 5736 5736 5736 5736 5736 5736 5737 5737 5736 5735 5734 5733 5732 5731 5729 5727 5726 5724 5722 5720 5718 5716 5714 5712 5710 5708 5705 5703 5700 5697
5725 5726 5727 5728 5729 5729 5730 5731 5732 5732 5732 5732 5732 5731 5731 5730 5730 5730 5730 5730 5730 5730 5729 5729 5728 5726 5725 5724 5722 5720 5719 5717 5715 5713 5712 5710 5707 5705 5702 5700 5697 5694 5691 5688
5719 5720 5721 5722 5722 5723 5724 5724 5725 5725 5726 5726 5726 5725 5725 5724 5724 5724 5724 5724 5724 5724 5723 5722 5721 5720 5719 5718 5716 5714 5712 5711 5709 5707 5705 5702 5700 5698 5695 5692 5689 5686 5683 5680
5714 5715 5715 5716 5716 5717 5717 5717 5718 5718 5719 5719 5719 5719 5719 5719 5719 5718 5718 5718 5718 5718 5717 5716 5715 5714 5713 5712 5710 5708 5706 5704 5702 5700 5698 5695 5693 5690 5687 5684 5681 5678 5675 5672
5709 5709 5710 5710 5711 5711 5711 5711 5712 5713 5713 5714 5714 5714 5714 5713 5713 5713 5713 5713 5712 5712 5711 5711 5710 5709 5707 5706 5704 5702 5701 5698 5696 5693 5691 5689 5686 5683 5680 5677 5673 5670 5667 5663
5704 5704 5705 5705 5705 5705 5705 5706 5707 5707 5708 5709 5709 5709 5709 5709 5709 5709 5708 5708 5707 5707 5706 5705 5704 5703 5702 5701 5698 5697 5695 5693 5690 5688 5685 5683 5679 5676 5673 5669 5666 5662 5659 5655
5699 5700 5700 5700 5700 5700 5701 5702 5702 5703 5704 5704 5704 5705 5705 5705 5704 5704 5704 5703 5703 5702 5702 5701 5700 5698 5697 5695 5693 5691 5689 5687 5684 5682 5679 5676 5673 5669 5666 5662 5659 5655 5651 5647
5696 5696 5696 5696 5696 5697 5697 5698 5699 5699 5700 5700 5700 5700 5701 5700 5700 5700 5700 5699 5699 5698 5698 5697 5695 5694 5692 5690 5688 5686 5683 5681 5678 5675 5672 5669 5666 5662 5658 5655 5651 5647 5643 5639
5692 5692 5693 5693 5693 5693 5694 5695 5695 5695 5696 5696 5696 5696 5696 5696 5696 5696 5696 5695 5695 5694 5693 5692 5690 5689 5687 5685 5683 5680 5677 5675 5672 5669 5666 5662 5658 5655 5651 5647 5643 5639 5635 5631